When you browse on this site, cookies collect data to enhance your experience and personalize the content and advertising you see.
Visit our Privacy Policy to learn more. By continuing to use the site, you agree to this use of cookies and data.
  • In Schweiz
  • Länderverzeichnis
  • Für 7 Tage
  • Wassertemperatur
  • Wetterkarte
  • Widgets
  • user-avatar
    Anmelden

    Stündliche Wetter Chartres

    Heute, 31 Mai, Sonntag

    Zeit Temperatur Niederschläge Wind Luftdruck Luftfeuchtigkeit
    00:00 +12°C° 0 mm 3 m/S 751 mmHg 83%
    01:00 +12°C° 0 mm 3 m/S 751 mmHg 82%
    02:00 +11°C° 0 mm 3 m/S 751 mmHg 81%
    03:00 +10°C° 0 mm 3 m/S 751 mmHg 81%
    04:00 +11°C° 0 mm 3 m/S 751 mmHg 78%
    05:00 +12°C° 0 mm 3 m/S 751 mmHg 76%
    06:00 +13°C° 0 mm 3 m/S 751 mmHg 74%
    07:00 +15°C° 0 mm 4 m/S 752 mmHg 68%
    08:00 +16°C° 0 mm 5 m/S 752 mmHg 63%
    09:00 +19°C° 0 mm 6 m/S 752 mmHg 57%
    10:00 +20°C° 0 mm 6 m/S 752 mmHg 56%
    11:00 +20°C° 0 mm 6 m/S 752 mmHg 54%
    12:00 +21°C° 0 mm 6 m/S 752 mmHg 53%
    13:00 +21°C° 0 mm 6 m/S 751 mmHg 54%
    14:00 +21°C° 0 mm 6 m/S 751 mmHg 55%
    15:00 +21°C° 0 mm 6 m/S 751 mmHg 56%
    16:00 +20°C° 0 mm 5 m/S 751 mmHg 62%
    17:00 +19°C° 0 mm 5 m/S 751 mmHg 67%
    18:00 +19°C° 0 mm 4 m/S 751 mmHg 72%
    19:00 +17°C° 0 mm 4 m/S 751 mmHg 74%
    20:00 +14°C° 0 mm 4 m/S 751 mmHg 76%
    21:00 +13°C° 0 mm 3 m/S 751 mmHg 78%
    22:00 +13°C° 0 mm 3 m/S 751 mmHg 79%
    23:00 +12°C° 0 mm 4 m/S 751 mmHg 79%

    Morgen, 1 Juni, Montag

    Zeit Temperatur Niederschläge Wind Luftdruck Luftfeuchtigkeit
    00:00 +12°C° 0 mm 4 m/S 751 mmHg 80%
    01:00 +11°C° 0 mm 4 m/S 751 mmHg 79%
    02:00 +11°C° 0 mm 4 m/S 751 mmHg 79%
    03:00 +10°C° 0 mm 4 m/S 750 mmHg 78%
    04:00 +11°C° 0 mm 4 m/S 751 mmHg 78%
    05:00 +12°C° 0 mm 4 m/S 751 mmHg 78%
    06:00 +12°C° 0 mm 5 m/S 751 mmHg 78%
    07:00 +14°C° 0 mm 5 m/S 751 mmHg 74%
    08:00 +16°C° 0 mm 5 m/S 751 mmHg 69%
    09:00 +19°C° 0 mm 5 m/S 751 mmHg 65%
    10:00 +20°C° 0 mm 5 m/S 751 mmHg 62%
    11:00 +21°C° 0 mm 5 m/S 751 mmHg 60%
    12:00 +22°C° 0 mm 5 m/S 751 mmHg 58%
    13:00 +22°C° 0 mm 5 m/S 751 mmHg 58%
    14:00 +23°C° 0 mm 5 m/S 751 mmHg 59%
    15:00 +23°C° 0 mm 5 m/S 751 mmHg 59%
    16:00 +22°C° 0 mm 4 m/S 750 mmHg 64%
    17:00 +22°C° 0 mm 4 m/S 750 mmHg 69%
    18:00 +21°C° 0 mm 3 m/S 750 mmHg 75%
    19:00 +20°C° 0 mm 3 m/S 750 mmHg 79%
    20:00 +18°C° 0 mm 3 m/S 751 mmHg 83%
    21:00 +16°C° 0 mm 3 m/S 751 mmHg 87%
    22:00 +16°C° 0 mm 3 m/S 751 mmHg 87%
    23:00 +14°C° 0 mm 3 m/S 751 mmHg 87%

    übermorgen, 2 Juni, Dienstag

    Zeit Temperatur Niederschläge Wind Luftdruck Luftfeuchtigkeit
    00:00 +13°C° 0 mm 3 m/S 750 mmHg 87%
    01:00 +13°C° 0 mm 3 m/S 750 mmHg 89%
    02:00 +13°C° 0 mm 3 m/S 750 mmHg 90%
    03:00 +12°C° 0 mm 3 m/S 750 mmHg 92%
    04:00 +13°C° 0 mm 3 m/S 750 mmHg 89%
    05:00 +14°C° 0 mm 3 m/S 750 mmHg 87%
    06:00 +16°C° 0 mm 3 m/S 750 mmHg 84%
    07:00 +18°C° 0 mm 3 m/S 750 mmHg 80%
    08:00 +20°C° 0 mm 3 m/S 750 mmHg 75%
    09:00 +21°C° 0 mm 3 m/S 750 mmHg 70%
    10:00 +24°C° 0 mm 3 m/S 750 mmHg 65%
    11:00 +25°C° 0 mm 3 m/S 750 mmHg 60%
    12:00 +26°C° 0 mm 3 m/S 750 mmHg 55%
    13:00 +26°C° 0 mm 3 m/S 749 mmHg 54%
    14:00 +26°C° 0 mm 3 m/S 749 mmHg 53%
    15:00 +26°C° 0 mm 2 m/S 748 mmHg 52%
    16:00 +26°C° 0 mm 2 m/S 748 mmHg 58%
    17:00 +25°C° 0 mm 2 m/S 748 mmHg 64%
    18:00 +24°C° 0 mm 2 m/S 747 mmHg 69%
    19:00 +21°C° 0 mm 2 m/S 747 mmHg 73%
    20:00 +19°C° 0 mm 2 m/S 747 mmHg 78%
    21:00 +18°C° 0 mm 2 m/S 747 mmHg 82%
    22:00 +18°C° 0 mm 1 m/S 747 mmHg 84%
    23:00 +16°C° 0 mm 1 m/S 746 mmHg 86%

    3 Juni, Mittwoch

    Zeit Temperatur Niederschläge Wind Luftdruck Luftfeuchtigkeit
    00:00 +16°C° 0 mm 1 m/S 746 mmHg 88%
    01:00 +15°C° 0 mm 1 m/S 746 mmHg 89%
    02:00 +15°C° 0 mm 1 m/S 745 mmHg 89%
    03:00 +14°C° 0 mm 0 m/S 745 mmHg 89%
    04:00 +15°C° 0 mm 1 m/S 745 mmHg 89%
    05:00 +16°C° 0 mm 1 m/S 744 mmHg 88%
    06:00 +18°C° 0 mm 1 m/S 744 mmHg 87%
    07:00 +19°C° 0.5 mm 1 m/S 744 mmHg 83%
    08:00 +21°C° 0.5 mm 1 m/S 744 mmHg 79%
    09:00 +21°C° 0.5 mm 2 m/S 743 mmHg 75%
    10:00 +23°C° 1 mm 2 m/S 743 mmHg 71%
    11:00 +24°C° 1 mm 1 m/S 743 mmHg 67%
    12:00 +24°C° 1 mm 1 m/S 742 mmHg 64%
    13:00 +24°C° 1.3 mm 2 m/S 742 mmHg 66%
    14:00 +24°C° 1.3 mm 2 m/S 741 mmHg 68%
    15:00 +24°C° 1.3 mm 2 m/S 741 mmHg 70%
    16:00 +21°C° 1.8 mm 2 m/S 741 mmHg 77%
    17:00 +20°C° 1.8 mm 3 m/S 740 mmHg 85%
    18:00 +18°C° 1.8 mm 4 m/S 740 mmHg 92%
    19:00 +17°C° 0.9 mm 4 m/S 740 mmHg 93%
    20:00 +17°C° 0.9 mm 4 m/S 740 mmHg 94%
    21:00 +15°C° 0.9 mm 4 m/S 741 mmHg 95%
    22:00 +16°C° 0.1 mm 3 m/S 741 mmHg 96%
    23:00 +14°C° 0.1 mm 3 m/S 740 mmHg 96%

    4 Juni, Donnerstag

    Zeit Temperatur Niederschläge Wind Luftdruck Luftfeuchtigkeit
    00:00 +15°C° 0.1 mm 2 m/S 740 mmHg 97%
    01:00 +13°C° 0 mm 3 m/S 740 mmHg 97%
    02:00 +13°C° 0 mm 3 m/S 740 mmHg 97%
    03:00 +12°C° 0 mm 3 m/S 740 mmHg 97%
    04:00 +13°C° 0 mm 3 m/S 741 mmHg 97%
    05:00 +13°C° 0 mm 3 m/S 741 mmHg 96%
    06:00 +13°C° 0 mm 3 m/S 741 mmHg 96%
    07:00 +14°C° 0 mm 3 m/S 741 mmHg 94%
    08:00 +16°C° 0 mm 3 m/S 741 mmHg 92%
    09:00 +16°C° 0 mm 3 m/S 742 mmHg 90%
    10:00 +17°C° 0 mm 4 m/S 742 mmHg 86%
    11:00 +18°C° 0 mm 4 m/S 742 mmHg 82%
    12:00 +19°C° 0 mm 4 m/S 742 mmHg 78%
    13:00 +19°C° 0 mm 4 m/S 742 mmHg 76%
    14:00 +20°C° 0 mm 4 m/S 742 mmHg 75%
    15:00 +20°C° 0 mm 4 m/S 742 mmHg 73%
    16:00 +20°C° 0 mm 4 m/S 742 mmHg 75%
    17:00 +19°C° 0 mm 4 m/S 743 mmHg 77%
    18:00 +19°C° 0 mm 4 m/S 743 mmHg 79%
    19:00 +17°C° 0 mm 4 m/S 743 mmHg 83%
    20:00 +16°C° 0 mm 3 m/S 743 mmHg 87%
    21:00 +13°C° 0 mm 3 m/S 744 mmHg 91%
    22:00 +12°C° 0 mm 3 m/S 744 mmHg 92%
    23:00 +11°C° 0 mm 3 m/S 744 mmHg 92%

    5 Juni, Freitag

    Zeit Temperatur Niederschläge Wind Luftdruck Luftfeuchtigkeit
    00:00 +10°C° 0 mm 3 m/S 744 mmHg 92%
    01:00 +10°C° 0 mm 3 m/S 744 mmHg 92%
    02:00 +10°C° 0 mm 3 m/S 744 mmHg 92%
    03:00 +9°C° 0 mm 2 m/S 743 mmHg 92%
    04:00 +10°C° 0 mm 2 m/S 743 mmHg 89%
    05:00 +12°C° 0 mm 2 m/S 743 mmHg 87%
    06:00 +13°C° 0 mm 2 m/S 743 mmHg 84%
    07:00 +14°C° 0 mm 2 m/S 743 mmHg 80%
    08:00 +16°C° 0 mm 2 m/S 743 mmHg 76%
    09:00 +18°C° 0 mm 2 m/S 743 mmHg 72%
    10:00 +19°C° 0 mm 2 m/S 743 mmHg 70%
    11:00 +20°C° 0 mm 2 m/S 743 mmHg 68%
    12:00 +23°C° 0 mm 2 m/S 742 mmHg 66%
    13:00 +23°C° 0 mm 2 m/S 742 mmHg 66%
    14:00 +23°C° 0 mm 2 m/S 742 mmHg 66%
    15:00 +23°C° 0 mm 1 m/S 741 mmHg 65%
    16:00 +23°C° 0 mm 2 m/S 741 mmHg 69%
    17:00 +21°C° 0 mm 2 m/S 741 mmHg 73%
    18:00 +21°C° 0 mm 2 m/S 741 mmHg 76%
    19:00 +19°C° 0 mm 3 m/S 741 mmHg 78%
    20:00 +18°C° 0 mm 3 m/S 741 mmHg 80%
    21:00 +16°C° 0 mm 3 m/S 741 mmHg 81%
    22:00 +14°C° 0.1 mm 3 m/S 741 mmHg 82%
    23:00 +13°C° 0.1 mm 3 m/S 741 mmHg 83%
    Mehr zeigen